Tiempo cada hora Murkowo

Hoy, 22 Octubre, Jueves

Tiempo Temperatura Precipitaciones Viento Presión Humedad
00:00 +10°C° 0 mm 4 mps 748 mmHg 75%
01:00 +10°C° 0 mm 4 mps 748 mmHg 75%
02:00 +9°C° 0 mm 5 mps 748 mmHg 74%
03:00 +9°C° 0 mm 5 mps 748 mmHg 74%
04:00 +9°C° 0 mm 5 mps 748 mmHg 74%
05:00 +10°C° 0 mm 5 mps 748 mmHg 73%
06:00 +10°C° 0 mm 5 mps 748 mmHg 72%
07:00 +10°C° 0 mm 5 mps 749 mmHg 71%
08:00 +13°C° 0 mm 6 mps 749 mmHg 68%
09:00 +14°C° 0 mm 7 mps 749 mmHg 64%
10:00 +16°C° 0 mm 7 mps 750 mmHg 60%
11:00 +16°C° 0 mm 7 mps 750 mmHg 60%
12:00 +17°C° 0 mm 7 mps 750 mmHg 60%
13:00 +19°C° 0 mm 6 mps 750 mmHg 60%
14:00 +17°C° 0 mm 5 mps 750 mmHg 64%
15:00 +17°C° 0 mm 4 mps 750 mmHg 69%
16:00 +16°C° 0 mm 3 mps 750 mmHg 73%
17:00 +16°C° 0 mm 3 mps 750 mmHg 76%
18:00 +14°C° 0 mm 3 mps 750 mmHg 79%
19:00 +13°C° 0 mm 3 mps 750 mmHg 82%
20:00 +13°C° 0 mm 3 mps 750 mmHg 82%
21:00 +13°C° 0 mm 3 mps 750 mmHg 82%
22:00 +13°C° 0 mm 3 mps 750 mmHg 83%
23:00 +12°C° 0 mm 3 mps 750 mmHg 83%

Mañana, 23 Octubre, Viernes

Tiempo Temperatura Precipitaciones Viento Presión Humedad
00:00 +12°C° 0 mm 3 mps 750 mmHg 83%
01:00 +12°C° 0 mm 3 mps 750 mmHg 83%
02:00 +12°C° 0 mm 3 mps 749 mmHg 83%
03:00 +12°C° 0 mm 3 mps 749 mmHg 82%
04:00 +12°C° 0 mm 4 mps 749 mmHg 82%
05:00 +12°C° 0 mm 4 mps 748 mmHg 81%
06:00 +13°C° 0 mm 4 mps 748 mmHg 80%
07:00 +13°C° 0 mm 4 mps 748 mmHg 79%
08:00 +13°C° 0 mm 4 mps 748 mmHg 79%
09:00 +13°C° 0 mm 4 mps 748 mmHg 80%
10:00 +14°C° 0 mm 5 mps 748 mmHg 80%
11:00 +14°C° 0 mm 4 mps 748 mmHg 79%
12:00 +15°C° 0 mm 4 mps 748 mmHg 77%
13:00 +17°C° 0 mm 4 mps 748 mmHg 76%
14:00 +16°C° 0 mm 3 mps 748 mmHg 79%
15:00 +16°C° 0 mm 3 mps 748 mmHg 81%
16:00 +15°C° 0 mm 2 mps 748 mmHg 84%
17:00 +15°C° 0 mm 2 mps 748 mmHg 86%
18:00 +14°C° 0 mm 2 mps 748 mmHg 89%
19:00 +13°C° 0 mm 1 mps 748 mmHg 91%
20:00 +13°C° 0 mm 1 mps 748 mmHg 91%
21:00 +13°C° 0 mm 1 mps 748 mmHg 91%
22:00 +13°C° 0 mm 1 mps 748 mmHg 91%
23:00 +13°C° 0.1 mm 1 mps 748 mmHg 91%

Pasado mañana, 24 Octubre, Sábado

Tiempo Temperatura Precipitaciones Viento Presión Humedad
00:00 +13°C° 0.1 mm 2 mps 747 mmHg 90%
01:00 +13°C° 0.1 mm 2 mps 747 mmHg 89%
02:00 +12°C° 1.2 mm 3 mps 747 mmHg 91%
03:00 +12°C° 1.2 mm 3 mps 746 mmHg 93%
04:00 +12°C° 1.2 mm 4 mps 746 mmHg 95%
05:00 +12°C° 1.4 mm 4 mps 746 mmHg 94%
06:00 +12°C° 1.4 mm 5 mps 746 mmHg 93%
07:00 +13°C° 1.4 mm 5 mps 746 mmHg 93%
08:00 +13°C° 0.1 mm 5 mps 746 mmHg 88%
09:00 +13°C° 0.1 mm 5 mps 747 mmHg 83%
10:00 +14°C° 0.1 mm 4 mps 747 mmHg 78%
11:00 +14°C° 0 mm 5 mps 748 mmHg 76%
12:00 +15°C° 0 mm 5 mps 748 mmHg 75%
13:00 +15°C° 0 mm 6 mps 748 mmHg 73%
14:00 +15°C° 0.1 mm 5 mps 749 mmHg 74%
15:00 +14°C° 0.1 mm 4 mps 749 mmHg 76%
16:00 +14°C° 0.1 mm 4 mps 749 mmHg 77%
17:00 +13°C° 0 mm 4 mps 750 mmHg 80%
18:00 +12°C° 0 mm 4 mps 750 mmHg 82%
19:00 +11°C° 0 mm 4 mps 751 mmHg 85%
20:00 +11°C° 0 mm 4 mps 751 mmHg 85%
21:00 +11°C° 0 mm 3 mps 751 mmHg 86%
22:00 +10°C° 0 mm 3 mps 752 mmHg 86%
23:00 +10°C° 0 mm 3 mps 752 mmHg 86%

, 25 Octubre, Domingo

Tiempo Temperatura Precipitaciones Viento Presión Humedad
00:00 +10°C° 0 mm 3 mps 752 mmHg 87%
01:00 +10°C° 0 mm 3 mps 752 mmHg 87%
02:00 +10°C° 0 mm 3 mps 752 mmHg 88%
03:00 +10°C° 0 mm 3 mps 752 mmHg 90%
04:00 +10°C° 0 mm 2 mps 752 mmHg 91%
05:00 +9°C° 0 mm 2 mps 752 mmHg 92%
06:00 +9°C° 0 mm 2 mps 752 mmHg 93%
07:00 +9°C° 0 mm 2 mps 752 mmHg 94%
08:00 +10°C° 0 mm 2 mps 752 mmHg 88%
09:00 +11°C° 0 mm 3 mps 752 mmHg 82%
10:00 +13°C° 0 mm 3 mps 753 mmHg 77%
11:00 +14°C° 0 mm 3 mps 752 mmHg 73%
12:00 +14°C° 0 mm 3 mps 752 mmHg 68%
13:00 +16°C° 0 mm 3 mps 752 mmHg 64%
14:00 +16°C° 0 mm 2 mps 752 mmHg 68%
15:00 +15°C° 0 mm 2 mps 751 mmHg 72%
16:00 +14°C° 0 mm 2 mps 751 mmHg 76%
17:00 +13°C° 0 mm 2 mps 751 mmHg 79%
18:00 +12°C° 0 mm 3 mps 751 mmHg 81%
19:00 +11°C° 0 mm 3 mps 751 mmHg 84%
20:00 +11°C° 0 mm 3 mps 751 mmHg 85%
21:00 +11°C° 0 mm 3 mps 751 mmHg 87%
22:00 +10°C° 0 mm 3 mps 751 mmHg 88%
23:00 +10°C° 0 mm 3 mps 751 mmHg 89%

25 Octubre, Domingo

Tiempo Temperatura Precipitaciones Viento Presión Humedad
00:00 +10°C° 0 mm 3 mps 752 mmHg 87%
01:00 +10°C° 0 mm 3 mps 752 mmHg 87%
02:00 +10°C° 0 mm 3 mps 752 mmHg 88%
03:00 +10°C° 0 mm 3 mps 752 mmHg 90%
04:00 +10°C° 0 mm 2 mps 752 mmHg 91%
05:00 +9°C° 0 mm 2 mps 752 mmHg 92%
06:00 +9°C° 0 mm 2 mps 752 mmHg 93%
07:00 +9°C° 0 mm 2 mps 752 mmHg 94%
08:00 +10°C° 0 mm 2 mps 752 mmHg 88%
09:00 +11°C° 0 mm 3 mps 752 mmHg 82%
10:00 +13°C° 0 mm 3 mps 753 mmHg 77%
11:00 +14°C° 0 mm 3 mps 752 mmHg 73%
12:00 +14°C° 0 mm 3 mps 752 mmHg 68%
13:00 +16°C° 0 mm 3 mps 752 mmHg 64%
14:00 +16°C° 0 mm 2 mps 752 mmHg 68%
15:00 +15°C° 0 mm 2 mps 751 mmHg 72%
16:00 +14°C° 0 mm 2 mps 751 mmHg 76%
17:00 +13°C° 0 mm 2 mps 751 mmHg 79%
18:00 +12°C° 0 mm 3 mps 751 mmHg 81%
19:00 +11°C° 0 mm 3 mps 751 mmHg 84%
20:00 +11°C° 0 mm 3 mps 751 mmHg 85%
21:00 +11°C° 0 mm 3 mps 751 mmHg 87%
22:00 +10°C° 0 mm 3 mps 751 mmHg 88%
23:00 +10°C° 0 mm 3 mps 751 mmHg 89%

26 Octubre, Lunes

Tiempo Temperatura Precipitaciones Viento Presión Humedad
00:00 +10°C° 0 mm 3 mps 750 mmHg 90%
01:00 +9°C° 0 mm 3 mps 750 mmHg 91%
02:00 +8°C° 0 mm 4 mps 750 mmHg 91%
03:00 +8°C° 0 mm 4 mps 750 mmHg 91%
04:00 +8°C° 0 mm 4 mps 749 mmHg 91%
05:00 +7°C° 0 mm 4 mps 749 mmHg 92%
06:00 +7°C° 0 mm 4 mps 749 mmHg 93%
07:00 +7°C° 0 mm 4 mps 749 mmHg 93%
08:00 +8°C° 0 mm 4 mps 749 mmHg 88%
09:00 +10°C° 0 mm 5 mps 749 mmHg 84%
10:00 +12°C° 0 mm 5 mps 748 mmHg 79%
11:00 +13°C° 0 mm 5 mps 748 mmHg 76%
12:00 +13°C° 0 mm 5 mps 748 mmHg 74%
13:00 +14°C° 0 mm 5 mps 747 mmHg 71%
14:00 +14°C° 0 mm 5 mps 747 mmHg 74%
15:00 +13°C° 0 mm 4 mps 747 mmHg 76%
16:00 +13°C° 0 mm 4 mps 746 mmHg 79%
17:00 +13°C° 0.1 mm 4 mps 746 mmHg 81%
18:00 +12°C° 0.1 mm 4 mps 746 mmHg 84%
19:00 +12°C° 0.1 mm 4 mps 746 mmHg 87%
20:00 +11°C° 0 mm 4 mps 746 mmHg 87%
21:00 +11°C° 0 mm 4 mps 746 mmHg 88%
22:00 +11°C° 0 mm 4 mps 746 mmHg 88%
23:00 +11°C° 0 mm 4 mps 746 mmHg 88%

27 Octubre, Martes

Tiempo Temperatura Precipitaciones Viento Presión Humedad
00:00 +11°C° 0 mm 3 mps 746 mmHg 88%
01:00 +11°C° 0 mm 3 mps 746 mmHg 87%
02:00 +10°C° 0 mm 3 mps 746 mmHg 88%
03:00 +10°C° 0 mm 3 mps 746 mmHg 89%
04:00 +10°C° 0 mm 3 mps 746 mmHg 90%
05:00 +10°C° 0.1 mm 3 mps 747 mmHg 89%
06:00 +10°C° 0.1 mm 2 mps 747 mmHg 89%
07:00 +10°C° 0.1 mm 2 mps 747 mmHg 88%
08:00 +11°C° 0 mm 3 mps 747 mmHg 84%
09:00 +12°C° 0 mm 3 mps 748 mmHg 81%
10:00 +13°C° 0 mm 3 mps 748 mmHg 77%
11:00 +14°C° 0 mm 3 mps 748 mmHg 73%
12:00 +16°C° 0 mm 3 mps 748 mmHg 69%
13:00 +17°C° 0 mm 3 mps 748 mmHg 65%
14:00 +16°C° 0 mm 2 mps 748 mmHg 69%
15:00 +16°C° 0 mm 2 mps 749 mmHg 72%
16:00 +15°C° 0 mm 1 mps 749 mmHg 76%
17:00 +14°C° 0 mm 1 mps 749 mmHg 78%
18:00 +14°C° 0 mm 1 mps 749 mmHg 81%
19:00 +13°C° 0 mm 1 mps 750 mmHg 84%
20:00 +13°C° 0 mm 1 mps 750 mmHg 84%
21:00 +13°C° 0 mm 1 mps 750 mmHg 85%
22:00 +13°C° 0 mm 1 mps 751 mmHg 86%
23:00 +12°C° 0 mm 1 mps 751 mmHg 86%
Mostrar más

Necesitamos Su Consentimiento

Meteoprog y nuestros Proveedores de Servicios pueden almacenar y acceder a sus datos personales como cookies, identificadores de dispositivo u otras tecnologías similares de su dispositivo y procesar dichos datos para personalizar contenido y anuncios, además de ofrecer funciones de redes sociales y analizar el tráfico.

  • Almacenar y/o acceder a información en su dispositivo

    Se puede almacenar o acceder a cookies, identificadores de dispositivo u otra información de su dispositivo para los fines anteriormente indicados.

  • Anuncios y contenido personalizados, medición de anuncios y contenido, percepciones del público, y desarrollo de productos

    Los anuncios y el contenido pueden personalizarse en base a su perfil. Se pueden añadir más datos para personalizar mejor los anuncios y contenidos. Se puede medir el rendimiento de los anuncios y contenidos. Se puede obtener la percepción sobre el público que ha visto los anuncios y contenidos. Dichos datos pueden usarse para desarrollar o mejorar la experiencia del usuario, sistemas y software.

Al hacer clic en ‘Estoy De Acuerdo’ usted permitirá el uso de las cookies, identificadores de dispositivo, balizas web u otras tecnologías similares indicadas. Su configuración puede cambiarse desde el navegador de su dispositivo.

Para ciertos fines, los intereses legítimos pueden ser considerados por encima del consentimiento. Puede leer más sobre ello en nuestra Política de Privacidad y Cookies.